sat.trackr.live / text

‹ back to catalog

STARLINK-35691

NORAD 66404 · 2025-257AA

PAYLOAD ACTIVE UNKNOWN

§ Identity

Operator
Country
US
Launch date
2025-11-09
Launch site
AFETR
Launch vehicle
Mass (kg)
RCS (m²)

Purposes: comms

External: N2YO · Heavens-Above · Gunter

§ Orbital elements

Epoch: 2026-09-20T13:47:29.490432Z

Period
93.85 min
Inclination
53.1589°
Eccentricity
0.0000806
Mean motion
15.34398453 rev/d
Perigee alt
462.2 km
Apogee alt
463.3 km
Semi-major
6,840.8 km
B*
6.3688e-4
RAAN
27.3737°
Arg perigee
77.2406°
Mean anomaly
282.8687°
Rev number
4,963

§ Raw data

STARLINK-356911 66404U 25257AA  26263.57464688  .00021202  00000+0  63688-3 0  99982 66404  53.1589  27.3737 0000806  77.2406 282.8687 15.34398453 49630

JSON: /api/v1/satellites/66404 · /tle

For live sub-satellite position, see the globe view (requires WebGL).

§ Visibility from observer

Set your observer location to see the next 7 days of passes ≥ 10°. The values pass through the URL so the page stays shareable.

No JS? Fill the form by hand. The geolocation button needs JavaScript.